Precipitable_Water
0.17 0.10 0.08 0.07 0.07 0.09 0.12 0.14 0.14 0.15 0.15 0.14 0.13 0.12 0.10 0.09 0.09 0.10 0.11 0.14 0.17 0.13 0.10 0.10 0.11 0.10 0.09 0.09 0.09 0.10 0.11 0.11 0.10 0.10 0.11 0.11 0.12 0.13 0.14 0.16 0.18 0.20 0.19 0.23 0.28 0.32 0.34 0.35 0.36 0.38 0.40 0.42 0.44 0.43 0.43 0.42 0.40 0.40 0.39 0.39 0.38 0.40 0.41 0.38 0.35 0.34 0.33 0.30 0.29 0.29 0.27 0.24 0.25 0.24 0.24 0.23 0.22 0.21 0.21 0.20 0.20 0.19 0.19 0.19 0.19 0.19
0.15 0.09 0.07 0.10 0.11 0.12 0.13 0.16 0.17 0.16 0.16 0.14 0.12 0.11 0.10 0.10 0.07 0.09 0.09 0.13 0.16 0.11 0.08 0.09 0.09 0.07 0.07 0.07 0.07 0.07 0.09 0.09 0.09 0.09 0.10 0.11 0.12 0.13 0.14 0.14 0.15 0.17 0.22 0.26 0.27 0.30 0.33 0.34 0.35 0.36 0.37 0.39 0.39 0.40 0.41 0.40 0.39 0.39 0.40 0.38 0.38 0.40 0.39 0.37 0.34 0.32 0.31 0.29 0.27 0.24 0.23 0.23 0.24 0.23 0.22 0.21 0.21 0.21 0.21 0.20 0.20 0.19 0.19 0.20 0.20 0.20
0.09 0.07 0.08 0.12 0.14 0.15 0.15 0.15 0.16 0.14 0.12 0.12 0.10 0.09 0.08 0.07 0.08 0.08 0.09 0.12 0.13 0.11 0.07 0.08 0.06 0.05 0.06 0.06 0.07 0.08 0.08 0.09 0.09 0.10 0.10 0.11 0.12 0.13 0.14 0.14 0.15 0.17 0.18 0.21 0.23 0.26 0.29 0.31 0.33 0.33 0.33 0.35 0.36 0.37 0.36 0.37 0.38 0.39 0.39 0.38 0.38 0.38 0.36 0.34 0.33 0.31 0.28 0.27 0.27 0.26 0.24 0.24 0.23 0.24 0.23 0.22 0.22 0.22 0.21 0.20 0.20 0.20 0.20 0.20 0.20 0.21
0.05 0.06 0.10 0.14 0.15 0.14 0.14 0.13 0.12 0.10 0.10 0.08 0.08 0.07 0.05 0.06 0.05 0.05 0.07 0.10 0.12 0.10 0.07 0.06 0.06 0.06 0.07 0.08 0.08 0.08 0.08 0.08 0.09 0.11 0.11 0.12 0.12 0.12 0.13 0.13 0.14 0.15 0.16 0.18 0.19 0.21 0.24 0.27 0.30 0.31 0.31 0.31 0.33 0.35 0.35 0.36 0.36 0.37 0.37 0.36 0.36 0.35 0.35 0.33 0.31 0.30 0.28 0.27 0.26 0.26 0.25 0.25 0.24 0.22 0.22 0.22 0.22 0.21 0.21 0.19 0.20 0.20 0.20 0.20 0.20 0.21
0.05 0.08 0.12 0.14 0.14 0.13 0.12 0.12 0.10 0.09 0.06 0.08 0.07 0.06 0.05 0.05 0.07 0.07 0.07 0.08 0.09 0.08 0.09 0.08 0.07 0.06 0.06 0.06 0.07 0.07 0.09 0.09 0.10 0.10 0.10 0.11 0.12 0.13 0.14 0.15 0.16 0.15 0.16 0.16 0.18 0.20 0.22 0.24 0.26 0.27 0.28 0.30 0.30 0.31 0.32 0.33 0.34 0.34 0.34 0.34 0.34 0.34 0.32 0.30 0.29 0.28 0.27 0.26 0.25 0.24 0.24 0.24 0.23 0.22 0.21 0.20 0.19 0.19 0.18 0.18 0.18 0.18 0.20 0.20 0.21 0.22
0.07 0.11 0.13 0.11 0.11 0.12 0.10 0.09 0.09 0.08 0.06 0.06 0.06 0.06 0.06 0.07 0.08 0.08 0.08 0.07 0.06 0.05 0.09 0.08 0.04 0.04 0.05 0.06 0.07 0.07 0.08 0.08 0.09 0.09 0.09 0.10 0.11 0.12 0.13 0.13 0.14 0.16 0.17 0.17 0.17 0.18 0.20 0.21 0.23 0.26 0.27 0.28 0.28 0.28 0.30 0.31 0.32 0.34 0.34 0.34 0.34 0.34 0.32 0.29 0.27 0.26 0.25 0.23 0.22 0.21 0.20 0.19 0.18 0.17 0.17 0.16 0.15 0.15 0.16 0.16 0.17 0.19 0.20 0.21 0.21 0.22
0.07 0.11 0.11 0.10 0.09 0.09 0.09 0.08 0.09 0.09 0.06 0.05 0.05 0.09 0.08 0.08 0.07 0.07 0.07 0.06 0.04 0.04 0.08 0.09 0.04 0.04 0.05 0.06 0.07 0.08 0.08 0.09 0.10 0.09 0.09 0.09 0.10 0.11 0.11 0.12 0.13 0.13 0.14 0.16 0.17 0.18 0.19 0.20 0.21 0.23 0.25 0.25 0.25 0.25 0.27 0.29 0.31 0.33 0.34 0.34 0.34 0.32 0.30 0.28 0.26 0.24 0.24 0.22 0.22 0.21 0.20 0.19 0.18 0.16 0.16 0.16 0.16 0.16 0.16 0.17 0.18 0.19 0.21 0.21 0.21 0.21
0.10 0.10 0.11 0.11 0.09 0.08 0.08 0.06 0.08 0.08 0.06 0.05 0.08 0.09 0.08 0.07 0.07 0.07 0.07 0.06 0.05 0.08 0.08 0.08 0.07 0.05 0.05 0.06 0.08 0.09 0.09 0.09 0.09 0.09 0.09 0.09 0.10 0.10 0.11 0.12 0.13 0.13 0.14 0.15 0.15 0.16 0.18 0.19 0.20 0.20 0.22 0.24 0.24 0.25 0.27 0.28 0.29 0.30 0.31 0.31 0.31 0.30 0.29 0.26 0.24 0.23 0.22 0.21 0.21 0.20 0.20 0.20 0.18 0.17 0.15 0.16 0.16 0.17 0.18 0.18 0.18 0.19 0.21 0.22 0.22 0.22
0.10 0.08 0.09 0.08 0.09 0.08 0.07 0.07 0.08 0.09 0.07 0.06 0.09 0.10 0.09 0.08 0.07 0.07 0.07 0.07 0.07 0.07 0.06 0.08 0.10 0.07 0.06 0.07 0.09 0.10 0.08 0.08 0.08 0.09 0.09 0.09 0.10 0.11 0.11 0.12 0.13 0.13 0.14 0.14 0.15 0.16 0.17 0.18 0.19 0.20 0.21 0.23 0.25 0.26 0.26 0.26 0.26 0.28 0.30 0.30 0.30 0.29 0.27 0.26 0.23 0.21 0.21 0.21 0.20 0.20 0.19 0.19 0.19 0.18 0.17 0.17 0.18 0.18 0.19 0.18 0.19 0.20 0.21 0.22 0.23 0.23
0.10 0.09 0.10 0.10 0.08 0.07 0.08 0.09 0.10 0.10 0.07 0.09 0.12 0.12 0.11 0.11 0.10 0.09 0.08 0.08 0.08 0.07 0.06 0.08 0.10 0.07 0.06 0.08 0.08 0.09 0.09 0.08 0.08 0.09 0.09 0.10 0.10 0.10 0.11 0.12 0.13 0.14 0.15 0.15 0.15 0.16 0.17 0.18 0.18 0.19 0.21 0.23 0.24 0.25 0.26 0.26 0.27 0.28 0.29 0.29 0.28 0.26 0.26 0.25 0.23 0.21 0.21 0.20 0.20 0.20 0.19 0.18 0.18 0.18 0.18 0.18 0.18 0.19 0.19 0.19 0.20 0.21 0.21 0.22 0.22 0.23
0.10 0.15 0.15 0.11 0.09 0.09 0.10 0.11 0.12 0.11 0.11 0.14 0.13 0.10 0.09 0.09 0.10 0.11 0.12 0.11 0.09 0.07 0.07 0.09 0.10 0.09 0.06 0.07 0.09 0.09 0.08 0.09 0.09 0.10 0.10 0.10 0.10 0.11 0.12 0.12 0.13 0.13 0.14 0.15 0.15 0.16 0.17 0.18 0.19 0.21 0.20 0.21 0.22 0.24 0.25 0.25 0.26 0.27 0.27 0.28 0.26 0.25 0.24 0.24 0.23 0.21 0.20 0.20 0.20 0.19 0.18 0.18 0.17 0.18 0.18 0.18 0.19 0.19 0.20 0.19 0.20 0.21 0.22 0.22 0.22 0.23
0.11 0.13 0.12 0.12 0.15 0.13 0.13 0.11 0.14 0.14 0.14 0.12 0.10 0.09 0.08 0.08 0.12 0.12 0.11 0.13 0.08 0.07 0.09 0.10 0.11 0.11 0.07 0.08 0.10 0.11 0.11 0.12 0.11 0.11 0.10 0.10 0.11 0.11 0.12 0.12 0.13 0.13 0.14 0.14 0.15 0.16 0.17 0.18 0.19 0.20 0.20 0.21 0.21 0.23 0.24 0.24 0.25 0.25 0.26 0.26 0.26 0.24 0.23 0.23 0.23 0.22 0.21 0.20 0.20 0.19 0.18 0.18 0.18 0.18 0.18 0.18 0.18 0.19 0.19 0.20 0.21 0.22 0.23 0.22 0.22 0.23
0.08 0.09 0.12 0.14 0.17 0.13 0.12 0.11 0.12 0.13 0.13 0.11 0.10 0.09 0.07 0.07 0.07 0.07 0.09 0.08 0.08 0.07 0.10 0.11 0.12 0.10 0.09 0.09 0.11 0.12 0.13 0.13 0.14 0.13 0.12 0.12 0.12 0.13 0.13 0.13 0.14 0.14 0.15 0.15 0.16 0.16 0.17 0.17 0.18 0.18 0.19 0.20 0.21 0.21 0.22 0.22 0.24 0.24 0.25 0.25 0.25 0.23 0.22 0.22 0.22 0.21 0.21 0.20 0.20 0.19 0.18 0.18 0.19 0.19 0.19 0.19 0.19 0.20 0.20 0.21 0.22 0.22 0.22 0.22 0.22 0.23
0.07 0.11 0.13 0.14 0.14 0.16 0.13 0.10 0.09 0.10 0.12 0.10 0.09 0.09 0.08 0.07 0.07 0.06 0.07 0.08 0.08 0.09 0.11 0.10 0.13 0.09 0.10 0.11 0.13 0.13 0.13 0.14 0.15 0.15 0.14 0.14 0.14 0.14 0.14 0.15 0.15 0.15 0.16 0.16 0.17 0.17 0.18 0.18 0.19 0.19 0.19 0.20 0.20 0.21 0.21 0.22 0.23 0.23 0.24 0.24 0.24 0.23 0.23 0.22 0.22 0.22 0.21 0.20 0.20 0.20 0.19 0.19 0.19 0.19 0.19 0.20 0.20 0.21 0.21 0.22 0.23 0.23 0.23 0.22 0.22 0.23
0.06 0.07 0.10 0.13 0.10 0.16 0.13 0.12 0.11 0.10 0.11 0.11 0.11 0.10 0.09 0.08 0.08 0.07 0.07 0.07 0.07 0.08 0.09 0.11 0.09 0.07 0.08 0.08 0.12 0.13 0.14 0.14 0.15 0.15 0.15 0.15 0.15 0.15 0.16 0.16 0.16 0.16 0.16 0.17 0.17 0.18 0.19 0.19 0.20 0.20 0.21 0.21 0.21 0.22 0.22 0.23 0.23 0.23 0.23 0.24 0.24 0.24 0.24 0.23 0.22 0.22 0.22 0.21 0.21 0.20 0.20 0.20 0.20 0.20 0.20 0.21 0.21 0.22 0.22 0.23 0.24 0.24 0.24 0.23 0.23 0.23
0.08 0.08 0.10 0.15 0.15 0.15 0.13 0.14 0.14 0.12 0.11 0.12 0.13 0.12 0.10 0.10 0.10 0.08 0.09 0.08 0.08 0.08 0.08 0.09 0.08 0.09 0.09 0.12 0.12 0.13 0.14 0.14 0.15 0.16 0.15 0.15 0.16 0.16 0.16 0.16 0.16 0.16 0.16 0.18 0.18 0.19 0.20 0.21 0.22 0.23 0.23 0.23 0.24 0.24 0.24 0.24 0.24 0.24 0.24 0.24 0.24 0.24 0.25 0.24 0.23 0.23 0.23 0.22 0.22 0.22 0.21 0.21 0.22 0.22 0.22 0.22 0.23 0.23 0.24 0.24 0.25 0.25 0.24 0.24 0.24 0.24
0.08 0.07 0.13 0.14 0.16 0.15 0.15 0.15 0.14 0.13 0.09 0.11 0.12 0.10 0.11 0.13 0.11 0.10 0.10 0.11 0.10 0.09 0.07 0.09 0.08 0.09 0.11 0.10 0.11 0.12 0.13 0.14 0.15 0.16 0.16 0.16 0.16 0.17 0.16 0.16 0.16 0.16 0.17 0.17 0.18 0.19 0.20 0.22 0.23 0.23 0.24 0.25 0.26 0.26 0.26 0.25 0.25 0.25 0.25 0.25 0.25 0.26 0.26 0.25 0.24 0.24 0.24 0.24 0.23 0.23 0.22 0.22 0.22 0.23 0.23 0.23 0.23 0.24 0.24 0.25 0.25 0.25 0.24 0.24 0.23 0.23
0.07 0.07 0.12 0.11 0.11 0.15 0.18 0.17 0.16 0.15 0.14 0.12 0.10 0.12 0.14 0.15 0.13 0.11 0.09 0.09 0.09 0.08 0.08 0.09 0.08 0.09 0.09 0.07 0.11 0.12 0.13 0.14 0.15 0.15 0.15 0.16 0.16 0.16 0.16 0.17 0.17 0.17 0.18 0.19 0.20 0.20 0.20 0.21 0.22 0.23 0.25 0.26 0.26 0.27 0.28 0.28 0.28 0.28 0.28 0.28 0.27 0.27 0.27 0.26 0.26 0.26 0.25 0.25 0.24 0.24 0.24 0.24 0.24 0.24 0.24 0.25 0.24 0.25 0.25 0.25 0.25 0.25 0.23 0.23 0.23 0.24
0.11 0.08 0.09 0.12 0.13 0.15 0.17 0.17 0.14 0.16 0.17 0.13 0.12 0.17 0.12 0.10 0.10 0.12 0.11 0.09 0.09 0.08 0.08 0.09 0.09 0.09 0.09 0.09 0.11 0.11 0.12 0.13 0.14 0.14 0.14 0.15 0.15 0.16 0.17 0.17 0.18 0.18 0.18 0.19 0.20 0.20 0.20 0.20 0.21 0.23 0.24 0.26 0.27 0.28 0.29 0.29 0.30 0.29 0.29 0.30 0.29 0.28 0.28 0.28 0.29 0.28 0.28 0.27 0.26 0.26 0.25 0.25 0.25 0.26 0.26 0.26 0.26 0.26 0.26 0.26 0.25 0.24 0.23 0.23 0.23 0.24
0.12 0.09 0.08 0.13 0.13 0.15 0.16 0.15 0.11 0.12 0.16 0.18 0.18 0.15 0.16 0.13 0.12 0.11 0.11 0.11 0.10 0.09 0.09 0.08 0.09 0.08 0.10 0.11 0.11 0.11 0.12 0.13 0.14 0.14 0.14 0.15 0.15 0.16 0.17 0.17 0.17 0.17 0.18 0.19 0.19 0.20 0.20 0.21 0.22 0.23 0.24 0.25 0.26 0.27 0.28 0.29 0.30 0.29 0.30 0.30 0.30 0.31 0.31 0.30 0.30 0.29 0.28 0.28 0.28 0.28 0.27 0.27 0.27 0.27 0.27 0.27 0.27 0.27 0.27 0.26 0.25 0.23 0.22 0.22 0.23 0.23
0.10 0.11 0.08 0.11 0.14 0.15 0.11 0.14 0.12 0.12 0.12 0.13 0.14 0.13 0.14 0.13 0.15 0.14 0.13 0.11 0.10 0.09 0.09 0.08 0.08 0.09 0.10 0.13 0.12 0.12 0.13 0.14 0.14 0.14 0.15 0.16 0.16 0.17 0.17 0.17 0.18 0.18 0.18 0.18 0.19 0.19 0.21 0.22 0.23 0.24 0.25 0.26 0.27 0.28 0.29 0.29 0.29 0.29 0.30 0.30 0.31 0.30 0.30 0.30 0.31 0.31 0.30 0.30 0.29 0.29 0.29 0.29 0.29 0.29 0.29 0.28 0.28 0.28 0.28 0.27 0.25 0.22 0.22 0.22 0.22 0.23
0.12 0.11 0.09 0.10 0.10 0.11 0.11 0.13 0.13 0.13 0.13 0.13 0.12 0.12 0.12 0.12 0.11 0.10 0.09 0.12 0.11 0.10 0.09 0.09 0.08 0.09 0.11 0.15 0.14 0.14 0.15 0.15 0.16 0.16 0.16 0.16 0.17 0.17 0.18 0.19 0.19 0.19 0.20 0.20 0.20 0.21 0.21 0.22 0.23 0.24 0.26 0.27 0.27 0.27 0.28 0.28 0.29 0.29 0.29 0.30 0.31 0.31 0.31 0.31 0.31 0.31 0.31 0.31 0.31 0.30 0.30 0.30 0.31 0.31 0.31 0.30 0.29 0.28 0.28 0.25 0.22 0.22 0.22 0.21 0.22 0.23
0.13 0.12 0.11 0.10 0.10 0.10 0.11 0.12 0.14 0.14 0.14 0.13 0.13 0.12 0.13 0.12 0.11 0.10 0.08 0.09 0.11 0.11 0.11 0.10 0.09 0.09 0.13 0.15 0.16 0.17 0.17 0.17 0.17 0.17 0.17 0.18 0.18 0.19 0.19 0.20 0.20 0.21 0.21 0.21 0.21 0.22 0.23 0.23 0.24 0.24 0.25 0.26 0.27 0.27 0.28 0.28 0.28 0.29 0.29 0.30 0.31 0.31 0.31 0.32 0.32 0.32 0.32 0.32 0.31 0.31 0.31 0.31 0.31 0.31 0.31 0.30 0.29 0.28 0.26 0.23 0.21 0.22 0.21 0.22 0.22 0.23
0.15 0.12 0.11 0.10 0.11 0.11 0.12 0.13 0.14 0.14 0.13 0.12 0.12 0.13 0.12 0.10 0.11 0.10 0.10 0.11 0.10 0.10 0.09 0.09 0.09 0.10 0.14 0.17 0.18 0.19 0.19 0.19 0.19 0.19 0.19 0.19 0.20 0.21 0.21 0.21 0.21 0.21 0.21 0.22 0.22 0.23 0.24 0.25 0.25 0.25 0.26 0.27 0.27 0.28 0.29 0.29 0.29 0.30 0.30 0.30 0.31 0.30 0.31 0.31 0.32 0.32 0.32 0.32 0.31 0.31 0.31 0.31 0.31 0.31 0.30 0.29 0.27 0.26 0.23 0.21 0.21 0.22 0.22 0.22 0.22 0.23
0.12 0.12 0.11 0.09 0.09 0.09 0.09 0.10 0.11 0.13 0.13 0.11 0.11 0.12 0.12 0.13 0.13 0.13 0.13 0.13 0.10 0.10 0.10 0.10 0.08 0.09 0.14 0.18 0.18 0.18 0.19 0.19 0.20 0.21 0.21 0.21 0.22 0.22 0.22 0.22 0.22 0.22 0.22 0.23 0.23 0.23 0.24 0.24 0.25 0.26 0.27 0.28 0.28 0.29 0.30 0.30 0.30 0.30 0.31 0.31 0.31 0.31 0.32 0.32 0.32 0.31 0.31 0.31 0.31 0.31 0.31 0.31 0.31 0.30 0.29 0.28 0.26 0.24 0.22 0.21 0.22 0.22 0.22 0.23 0.23 0.23
0.13 0.11 0.10 0.08 0.07 0.06 0.06 0.06 0.07 0.08 0.10 0.11 0.12 0.12 0.13 0.13 0.13 0.12 0.11 0.11 0.10 0.10 0.11 0.10 0.10 0.12 0.15 0.19 0.19 0.20 0.21 0.21 0.22 0.23 0.24 0.25 0.24 0.23 0.23 0.23 0.24 0.24 0.24 0.25 0.25 0.25 0.25 0.26 0.26 0.26 0.27 0.28 0.29 0.30 0.30 0.31 0.31 0.31 0.31 0.31 0.31 0.31 0.31 0.31 0.31 0.31 0.31 0.30 0.30 0.30 0.30 0.30 0.30 0.29 0.28 0.27 0.25 0.22 0.21 0.22 0.22 0.23 0.23 0.23 0.23 0.23
0.13 0.13 0.11 0.10 0.09 0.08 0.09 0.09 0.12 0.13 0.12 0.10 0.11 0.12 0.13 0.14 0.14 0.15 0.14 0.13 0.11 0.12 0.12 0.12 0.12 0.13 0.15 0.18 0.19 0.20 0.22 0.22 0.22 0.23 0.24 0.25 0.25 0.25 0.25 0.26 0.26 0.26 0.26 0.27 0.27 0.28 0.28 0.27 0.27 0.27 0.28 0.28 0.29 0.30 0.31 0.31 0.31 0.31 0.31 0.31 0.31 0.31 0.31 0.31 0.31 0.30 0.30 0.30 0.29 0.29 0.28 0.28 0.28 0.28 0.27 0.26 0.24 0.22 0.22 0.22 0.23 0.23 0.23 0.24 0.23 0.23
0.14 0.12 0.12 0.13 0.13 0.13 0.13 0.14 0.15 0.15 0.14 0.15 0.15 0.15 0.16 0.16 0.16 0.15 0.14 0.12 0.14 0.14 0.11 0.13 0.14 0.14 0.18 0.19 0.19 0.21 0.22 0.23 0.23 0.24 0.25 0.27 0.26 0.26 0.27 0.27 0.28 0.27 0.28 0.28 0.28 0.29 0.29 0.29 0.29 0.29 0.29 0.29 0.29 0.30 0.30 0.31 0.31 0.31 0.31 0.30 0.31 0.31 0.31 0.31 0.31 0.30 0.30 0.29 0.28 0.28 0.27 0.27 0.27 0.27 0.26 0.25 0.24 0.23 0.23 0.23 0.24 0.24 0.24 0.24 0.23 0.23
0.18 0.16 0.17 0.18 0.17 0.18 0.18 0.17 0.18 0.17 0.17 0.17 0.17 0.17 0.16 0.17 0.16 0.15 0.15 0.16 0.16 0.14 0.13 0.15 0.17 0.16 0.19 0.20 0.21 0.22 0.24 0.24 0.24 0.25 0.26 0.29 0.29 0.29 0.29 0.28 0.28 0.28 0.28 0.29 0.30 0.31 0.31 0.31 0.31 0.31 0.31 0.31 0.31 0.30 0.30 0.30 0.31 0.31 0.31 0.31 0.31 0.31 0.30 0.30 0.30 0.29 0.29 0.29 0.28 0.27 0.27 0.27 0.27 0.26 0.26 0.25 0.24 0.23 0.23 0.24 0.24 0.25 0.25 0.24 0.24 0.24
0.21 0.17 0.17 0.17 0.15 0.14 0.14 0.16 0.17 0.16 0.16 0.16 0.17 0.17 0.18 0.17 0.17 0.18 0.18 0.19 0.19 0.18 0.20 0.19 0.19 0.19 0.20 0.21 0.23 0.24 0.26 0.27 0.26 0.27 0.27 0.29 0.29 0.30 0.30 0.29 0.28 0.29 0.29 0.29 0.30 0.32 0.32 0.32 0.32 0.32 0.33 0.33 0.33 0.32 0.31 0.31 0.31 0.30 0.30 0.30 0.30 0.30 0.30 0.29 0.29 0.29 0.28 0.28 0.28 0.28 0.28 0.27 0.26 0.26 0.26 0.25 0.24 0.24 0.24 0.25 0.25 0.25 0.25 0.24 0.24 0.25
0.18 0.13 0.17 0.16 0.14 0.13 0.14 0.16 0.16 0.16 0.16 0.15 0.17 0.18 0.18 0.18 0.18 0.19 0.19 0.19 0.19 0.19 0.19 0.19 0.18 0.18 0.21 0.23 0.24 0.25 0.26 0.27 0.25 0.24 0.25 0.28 0.29 0.29 0.29 0.28 0.28 0.28 0.29 0.29 0.30 0.31 0.32 0.32 0.32 0.33 0.32 0.32 0.33 0.34 0.33 0.32 0.31 0.31 0.30 0.30 0.30 0.29 0.29 0.29 0.28 0.28 0.28 0.28 0.28 0.28 0.28 0.27 0.27 0.26 0.25 0.25 0.25 0.24 0.24 0.25 0.25 0.25 0.25 0.24 0.25 0.26
0.18 0.14 0.16 0.15 0.12 0.10 0.12 0.14 0.14 0.15 0.15 0.16 0.15 0.15 0.16 0.16 0.15 0.17 0.16 0.18 0.16 0.15 0.16 0.16 0.16 0.16 0.19 0.21 0.23 0.23 0.24 0.23 0.22 0.23 0.23 0.26 0.28 0.28 0.27 0.27 0.26 0.26 0.26 0.27 0.28 0.29 0.29 0.29 0.30 0.30 0.31 0.31 0.31 0.32 0.33 0.33 0.32 0.30 0.29 0.30 0.30 0.30 0.29 0.29 0.28 0.28 0.28 0.28 0.28 0.28 0.28 0.27 0.27 0.26 0.26 0.25 0.25 0.25 0.25 0.25 0.25 0.25 0.25 0.25 0.26 0.26
0.16 0.14 0.13 0.13 0.11 0.09 0.12 0.13 0.13 0.14 0.13 0.10 0.12 0.14 0.15 0.17 0.18 0.18 0.19 0.19 0.18 0.18 0.15 0.13 0.14 0.18 0.19 0.21 0.20 0.21 0.22 0.22 0.21 0.22 0.21 0.25 0.26 0.26 0.26 0.24 0.22 0.23 0.24 0.25 0.26 0.26 0.26 0.27 0.28 0.28 0.28 0.28 0.29 0.29 0.31 0.33 0.33 0.31 0.31 0.31 0.32 0.31 0.29 0.29 0.28 0.28 0.28 0.28 0.28 0.28 0.28 0.27 0.27 0.26 0.26 0.25 0.25 0.25 0.25 0.25 0.25 0.25 0.25 0.26 0.27 0.26
0.16 0.15 0.13 0.15 0.11 0.10 0.12 0.13 0.14 0.11 0.07 0.09 0.17 0.18 0.17 0.16 0.16 0.15 0.15 0.17 0.19 0.19 0.17 0.18 0.18 0.19 0.18 0.19 0.18 0.18 0.19 0.19 0.20 0.21 0.22 0.25 0.24 0.24 0.23 0.21 0.22 0.23 0.24 0.25 0.24 0.24 0.24 0.25 0.26 0.25 0.25 0.25 0.25 0.26 0.27 0.30 0.32 0.32 0.32 0.33 0.33 0.32 0.30 0.29 0.28 0.28 0.28 0.28 0.28 0.28 0.28 0.27 0.27 0.26 0.26 0.26 0.25 0.25 0.25 0.25 0.25 0.26 0.26 0.26 0.26 0.25
0.15 0.15 0.14 0.15 0.12 0.11 0.12 0.12 0.10 0.07 0.08 0.16 0.20 0.17 0.18 0.17 0.17 0.17 0.18 0.19 0.19 0.19 0.19 0.18 0.18 0.18 0.18 0.18 0.18 0.20 0.20 0.20 0.20 0.20 0.19 0.25 0.24 0.23 0.20 0.20 0.21 0.23 0.23 0.22 0.21 0.22 0.23 0.23 0.23 0.22 0.22 0.22 0.22 0.22 0.23 0.24 0.26 0.28 0.29 0.30 0.31 0.32 0.31 0.30 0.29 0.28 0.28 0.28 0.28 0.28 0.28 0.27 0.27 0.27 0.26 0.26 0.26 0.26 0.26 0.26 0.26 0.26 0.26 0.25 0.24 0.24
0.13 0.13 0.13 0.12 0.14 0.13 0.11 0.11 0.06 0.08 0.14 0.16 0.18 0.18 0.18 0.18 0.17 0.16 0.15 0.19 0.19 0.19 0.19 0.17 0.18 0.18 0.17 0.17 0.18 0.20 0.19 0.19 0.18 0.18 0.21 0.24 0.23 0.20 0.19 0.19 0.21 0.22 0.21 0.21 0.21 0.22 0.22 0.22 0.22 0.22 0.21 0.22 0.21 0.21 0.21 0.22 0.23 0.24 0.25 0.26 0.26 0.28 0.29 0.30 0.29 0.28 0.29 0.28 0.28 0.28 0.28 0.28 0.27 0.27 0.27 0.27 0.26 0.26 0.26 0.26 0.26 0.26 0.25 0.24 0.24 0.23
0.16 0.15 0.15 0.11 0.15 0.10 0.11 0.10 0.10 0.15 0.14 0.14 0.14 0.15 0.15 0.13 0.13 0.13 0.11 0.13 0.18 0.20 0.19 0.18 0.17 0.16 0.15 0.15 0.17 0.18 0.18 0.17 0.16 0.16 0.20 0.19 0.20 0.20 0.19 0.20 0.21 0.20 0.20 0.21 0.21 0.21 0.22 0.22 0.22 0.21 0.21 0.21 0.21 0.21 0.21 0.21 0.22 0.22 0.22 0.22 0.23 0.24 0.25 0.26 0.27 0.28 0.28 0.29 0.29 0.28 0.28 0.28 0.28 0.27 0.27 0.27 0.26 0.26 0.26 0.26 0.26 0.25 0.25 0.23 0.22 0.21
0.17 0.13 0.15 0.12 0.12 0.14 0.09 0.08 0.08 0.08 0.07 0.10 0.15 0.18 0.18 0.16 0.15 0.16 0.16 0.13 0.20 0.20 0.20 0.17 0.14 0.14 0.13 0.14 0.15 0.16 0.15 0.13 0.11 0.12 0.16 0.18 0.19 0.18 0.19 0.19 0.19 0.19 0.20 0.19 0.20 0.21 0.21 0.20 0.21 0.22 0.22 0.21 0.19 0.20 0.21 0.21 0.22 0.21 0.20 0.20 0.21 0.21 0.22 0.22 0.23 0.26 0.28 0.28 0.29 0.29 0.28 0.28 0.28 0.27 0.27 0.26 0.26 0.26 0.26 0.25 0.25 0.24 0.24 0.22 0.21 0.20
0.15 0.16 0.14 0.12 0.10 0.11 0.09 0.08 0.08 0.07 0.09 0.13 0.14 0.16 0.16 0.15 0.14 0.15 0.14 0.10 0.18 0.18 0.16 0.15 0.14 0.14 0.13 0.14 0.14 0.14 0.13 0.10 0.10 0.12 0.14 0.16 0.16 0.17 0.17 0.16 0.17 0.18 0.18 0.18 0.20 0.19 0.19 0.20 0.21 0.20 0.20 0.19 0.18 0.19 0.20 0.21 0.21 0.20 0.19 0.19 0.20 0.20 0.20 0.20 0.21 0.22 0.24 0.26 0.27 0.28 0.28 0.28 0.27 0.27 0.26 0.26 0.26 0.25 0.25 0.24 0.24 0.23 0.22 0.21 0.20 0.19
0.11 0.11 0.11 0.09 0.09 0.10 0.08 0.07 0.06 0.09 0.09 0.13 0.15 0.15 0.14 0.13 0.12 0.12 0.07 0.06 0.13 0.14 0.15 0.14 0.13 0.13 0.13 0.14 0.14 0.13 0.11 0.09 0.10 0.11 0.13 0.14 0.15 0.16 0.16 0.15 0.15 0.15 0.16 0.18 0.19 0.19 0.20 0.20 0.18 0.17 0.17 0.18 0.18 0.19 0.20 0.20 0.20 0.19 0.19 0.19 0.20 0.19 0.19 0.20 0.21 0.22 0.22 0.23 0.24 0.26 0.27 0.27 0.26 0.26 0.26 0.25 0.25 0.25 0.24 0.24 0.23 0.22 0.21 0.20 0.19 0.18
0.08 0.09 0.10 0.07 0.08 0.08 0.07 0.06 0.07 0.09 0.13 0.16 0.16 0.15 0.12 0.11 0.09 0.06 0.05 0.08 0.12 0.12 0.12 0.12 0.12 0.13 0.13 0.11 0.12 0.10 0.11 0.12 0.13 0.13 0.14 0.16 0.16 0.15 0.15 0.15 0.14 0.14 0.16 0.16 0.16 0.19 0.19 0.18 0.18 0.18 0.18 0.19 0.19 0.20 0.20 0.20 0.20 0.19 0.20 0.20 0.20 0.19 0.20 0.21 0.21 0.21 0.22 0.22 0.23 0.23 0.24 0.25 0.25 0.25 0.25 0.25 0.24 0.24 0.23 0.23 0.22 0.21 0.20 0.19 0.18 0.17
0.08 0.09 0.10 0.09 0.07 0.07 0.07 0.06 0.06 0.07 0.13 0.15 0.14 0.12 0.12 0.08 0.05 0.05 0.11 0.15 0.14 0.13 0.13 0.13 0.13 0.13 0.12 0.11 0.11 0.11 0.12 0.13 0.14 0.15 0.16 0.16 0.16 0.15 0.14 0.14 0.13 0.15 0.15 0.15 0.18 0.18 0.17 0.17 0.17 0.17 0.18 0.18 0.19 0.20 0.20 0.20 0.20 0.20 0.20 0.20 0.20 0.21 0.21 0.22 0.22 0.22 0.22 0.22 0.22 0.22 0.22 0.22 0.23 0.23 0.24 0.24 0.23 0.22 0.22 0.21 0.21 0.20 0.19 0.18 0.17 0.16
0.09 0.08 0.07 0.06 0.08 0.09 0.07 0.06 0.05 0.04 0.10 0.14 0.12 0.10 0.12 0.08 0.08 0.13 0.15 0.15 0.15 0.15 0.14 0.14 0.14 0.13 0.13 0.12 0.12 0.13 0.14 0.14 0.14 0.14 0.15 0.16 0.16 0.15 0.14 0.14 0.14 0.14 0.13 0.15 0.16 0.16 0.16 0.16 0.16 0.16 0.17 0.18 0.18 0.19 0.20 0.20 0.19 0.20 0.20 0.20 0.20 0.22 0.22 0.22 0.22 0.22 0.22 0.21 0.21 0.21 0.21 0.22 0.21 0.21 0.21 0.22 0.22 0.21 0.20 0.20 0.19 0.19 0.18 0.17 0.16 0.16
0.12 0.07 0.07 0.08 0.11 0.06 0.06 0.05 0.05 0.09 0.12 0.13 0.13 0.09 0.11 0.13 0.15 0.16 0.15 0.14 0.15 0.15 0.14 0.14 0.13 0.14 0.14 0.13 0.13 0.13 0.14 0.13 0.14 0.15 0.15 0.15 0.15 0.15 0.15 0.16 0.16 0.14 0.14 0.17 0.17 0.17 0.17 0.16 0.16 0.16 0.17 0.18 0.19 0.19 0.19 0.19 0.18 0.19 0.19 0.19 0.21 0.21 0.21 0.21 0.21 0.21 0.21 0.21 0.21 0.21 0.21 0.21 0.21 0.21 0.21 0.20 0.20 0.19 0.19 0.18 0.18 0.17 0.17 0.16 0.15 0.15
0.14 0.10 0.10 0.08 0.10 0.09 0.07 0.08 0.11 0.13 0.13 0.14 0.14 0.14 0.14 0.15 0.17 0.17 0.16 0.15 0.15 0.15 0.15 0.14 0.13 0.14 0.14 0.14 0.14 0.14 0.13 0.13 0.13 0.13 0.13 0.14 0.15 0.16 0.16 0.15 0.15 0.14 0.15 0.16 0.16 0.17 0.17 0.17 0.16 0.16 0.16 0.17 0.18 0.19 0.19 0.20 0.19 0.19 0.18 0.19 0.20 0.20 0.20 0.20 0.20 0.20 0.20 0.20 0.20 0.20 0.20 0.20 0.20 0.20 0.20 0.19 0.19 0.18 0.17 0.17 0.16 0.16 0.16 0.15 0.15 0.14
0.15 0.15 0.14 0.12 0.11 0.13 0.13 0.13 0.14 0.14 0.14 0.14 0.15 0.15 0.15 0.16 0.17 0.17 0.16 0.15 0.15 0.15 0.15 0.14 0.14 0.14 0.14 0.15 0.14 0.13 0.13 0.14 0.13 0.13 0.13 0.14 0.16 0.16 0.16 0.15 0.15 0.15 0.16 0.17 0.17 0.17 0.17 0.17 0.17 0.16 0.16 0.17 0.18 0.19 0.19 0.19 0.19 0.18 0.19 0.20 0.20 0.20 0.20 0.20 0.20 0.19 0.19 0.19 0.19 0.20 0.20 0.19 0.19 0.19 0.19 0.18 0.18 0.17 0.17 0.16 0.15 0.15 0.15 0.15 0.14 0.14
0.14 0.16 0.13 0.11 0.12 0.10 0.07 0.11 0.12 0.13 0.14 0.14 0.14 0.15 0.16 0.17 0.17 0.18 0.17 0.16 0.15 0.15 0.14 0.15 0.15 0.15 0.15 0.15 0.14 0.13 0.13 0.13 0.13 0.13 0.14 0.15 0.14 0.15 0.16 0.15 0.15 0.15 0.15 0.16 0.17 0.17 0.16 0.16 0.16 0.16 0.16 0.16 0.17 0.18 0.19 0.19 0.19 0.19 0.20 0.20 0.20 0.20 0.20 0.19 0.19 0.19 0.19 0.19 0.19 0.19 0.19 0.18 0.18 0.18 0.17 0.17 0.17 0.16 0.16 0.16 0.15 0.15 0.14 0.14 0.13 0.13
0.11 0.17 0.12 0.12 0.12 0.10 0.10 0.12 0.13 0.14 0.15 0.15 0.14 0.14 0.14 0.16 0.17 0.18 0.17 0.16 0.16 0.15 0.15 0.16 0.16 0.15 0.15 0.14 0.14 0.14 0.13 0.14 0.13 0.13 0.13 0.13 0.14 0.15 0.15 0.15 0.15 0.14 0.14 0.17 0.17 0.17 0.17 0.16 0.16 0.16 0.16 0.16 0.17 0.18 0.18 0.18 0.19 0.19 0.19 0.19 0.19 0.19 0.19 0.19 0.18 0.18 0.18 0.18 0.18 0.18 0.18 0.17 0.17 0.17 0.16 0.16 0.16 0.15 0.15 0.15 0.15 0.14 0.14 0.13 0.13 0.13
0.14 0.16 0.10 0.12 0.11 0.12 0.13 0.14 0.14 0.14 0.13 0.14 0.15 0.15 0.16 0.17 0.17 0.17 0.17 0.16 0.15 0.15 0.15 0.16 0.16 0.16 0.15 0.14 0.15 0.14 0.14 0.14 0.14 0.14 0.14 0.14 0.14 0.15 0.15 0.15 0.14 0.14 0.15 0.16 0.17 0.16 0.16 0.16 0.16 0.16 0.16 0.16 0.17 0.17 0.17 0.18 0.18 0.19 0.19 0.19 0.19 0.19 0.18 0.18 0.18 0.18 0.17 0.17 0.17 0.17 0.17 0.17 0.17 0.16 0.16 0.16 0.16 0.15 0.15 0.15 0.14 0.14 0.14 0.14 0.13 0.13
0.15 0.11 0.13 0.13 0.10 0.10 0.11 0.12 0.14 0.11 0.09 0.12 0.13 0.14 0.16 0.18 0.18 0.16 0.15 0.15 0.16 0.16 0.16 0.15 0.15 0.16 0.16 0.15 0.15 0.15 0.14 0.14 0.14 0.14 0.13 0.14 0.14 0.15 0.15 0.14 0.14 0.14 0.16 0.17 0.16 0.16 0.16 0.16 0.16 0.16 0.16 0.16 0.17 0.17 0.17 0.17 0.18 0.18 0.18 0.19 0.19 0.18 0.18 0.17 0.17 0.17 0.17 0.17 0.17 0.16 0.16 0.16 0.16 0.16 0.16 0.15 0.15 0.15 0.15 0.15 0.15 0.14 0.13 0.13 0.13 0.13
0.13 0.13 0.13 0.11 0.11 0.10 0.14 0.15 0.16 0.15 0.14 0.14 0.15 0.16 0.16 0.17 0.17 0.16 0.16 0.16 0.17 0.17 0.16 0.15 0.15 0.15 0.15 0.15 0.16 0.15 0.15 0.15 0.14 0.14 0.14 0.14 0.14 0.15 0.15 0.15 0.14 0.15 0.15 0.16 0.16 0.16 0.16 0.16 0.16 0.16 0.16 0.16 0.16 0.16 0.17 0.17 0.17 0.17 0.18 0.18 0.18 0.18 0.17 0.17 0.16 0.16 0.16 0.16 0.16 0.16 0.16 0.16 0.16 0.16 0.15 0.15 0.15 0.14 0.14 0.14 0.14 0.14 0.14 0.14 0.13 0.13
Wind_Speed
10 11 11 11 12 11 11 10 10 11 10 11 12 12 14 14 15 15 15 15 14 14 16 16 17 20 20 20 19 19 19 20 22 22 22 22 22 22 23 24 24 25 25 24 25 26 26 27 28 28 28 29 29 29 29 29 30 30 30 30 30 30 30 29 29 29 29 29 29 29 29 29 29 29 29 29 29 29 29 29 29 29 29 29 29 29
10 11 12 11 11 10 10 10 9 10 10 10 11 12 14 14 15 14 14 15 14 14 16 15 18 20 21 21 20 19 18 20 22 21 22 22 22 22 23 24 25 24 24 24 25 26 27 28 28 28 29 29 30 30 30 31 31 31 31 32 32 31 31 31 30 30 30 30 30 30 30 30 30 30 30 30 30 30 30 30 30 30 30 30 30 30
12 12 12 11 10 9 10 9 9 10 11 11 11 12 14 14 15 15 14 15 14 14 17 17 19 21 22 21 21 19 18 20 22 21 22 22 22 22 23 24 24 24 24 24 25 26 27 28 28 28 29 29 30 30 30 31 31 32 32 32 32 32 31 31 31 31 31 31 31 31 31 31 31 31 31 31 31 31 31 31 31 31 31 31 31 31
12 12 11 11 9 9 11 10 10 11 12 12 12 13 14 14 14 14 15 15 15 16 18 19 20 22 21 19 19 19 19 20 21 21 22 23 23 24 24 24 24 24 24 24 25 25 26 27 27 28 29 29 29 30 30 30 31 31 31 32 32 32 32 32 32 32 32 31 31 31 31 31 31 31 31 31 31 31 31 31 31 31 31 32 32 32
12 12 10 10 10 9 10 11 10 11 13 13 12 13 14 14 14 15 16 17 17 18 18 19 21 21 18 17 18 17 17 19 20 20 22 23 23 24 24 24 24 24 24 24 25 25 25 26 27 28 29 29 29 30 30 30 31 31 31 32 32 32 32 32 32 32 31 31 31 31 30 31 31 31 31 31 31 31 31 31 31 31 32 32 32 32
12 11 10 9 10 10 10 12 11 11 13 14 13 13 13 13 14 15 17 17 17 17 17 17 18 19 17 17 18 17 17 19 19 19 21 22 22 22 23 24 24 24 24 25 25 25 25 26 27 28 28 29 30 30 30 31 31 31 31 32 32 32 32 32 32 32 32 32 31 31 31 31 31 31 31 31 32 32 31 31 31 31 31 32 32 32
11 11 10 9 10 10 10 12 12 10 11 14 14 12 11 11 13 15 16 16 16 16 16 16 16 18 19 18 18 17 17 19 18 18 19 20 20 21 22 24 24 24 25 25 25 25 26 26 27 27 28 29 30 30 30 30 31 31 31 31 32 32 32 32 32 32 32 33 32 33 32 32 32 32 32 32 32 32 31 31 31 31 32 32 32 32
10 10 11 10 10 10 11 12 12 9 10 13 13 11 11 13 14 14 14 15 16 18 18 17 15 17 19 18 17 17 17 17 17 18 19 19 20 20 22 23 23 24 24 24 25 25 25 26 26 27 28 29 30 30 30 30 31 31 32 32 32 32 32 33 33 33 33 33 33 34 33 33 33 33 33 32 32 32 32 31 31 32 32 33 33 32
10 10 11 10 10 11 11 12 11 9 11 14 13 12 13 14 14 14 14 16 18 18 19 17 14 15 18 18 18 17 17 18 18 19 19 19 20 20 21 22 22 23 23 23 24 24 24 25 26 28 28 29 30 30 30 31 31 32 32 32 33 33 33 33 34 34 34 34 34 34 34 34 34 34 33 33 32 32 32 32 32 33 33 33 33 33
12 11 11 10 10 12 12 12 11 11 13 14 12 13 15 15 16 16 16 17 17 17 19 18 15 15 18 19 19 17 17 17 18 19 18 19 20 20 20 21 21 22 22 22 23 23 23 25 26 27 27 28 29 30 31 31 32 32 33 33 34 34 34 34 34 35 35 35 35 35 35 35 35 34 34 33 33 33 33 33 33 34 34 34 34 34
13 12 12 11 12 12 11 12 13 12 13 14 14 15 17 17 18 18 17 17 16 17 20 19 16 15 18 19 18 17 17 16 17 19 19 19 20 21 20 21 21 21 21 21 22 22 22 24 25 25 26 27 28 29 30 31 32 32 33 33 34 34 34 35 35 35 36 36 36 36 36 36 36 36 35 35 34 34 34 35 35 35 35 35 35 35
14 13 13 14 13 12 12 13 14 14 14 14 15 16 18 19 18 18 18 16 16 19 20 18 16 16 17 20 20 18 17 17 17 19 20 20 21 21 21 21 21 22 22 22 22 22 22 22 23 24 26 27 27 28 29 31 31 32 33 33 34 34 35 35 36 36 36 36 37 37 37 37 37 37 37 36 36 36 36 36 36 36 36 36 35 35
15 14 15 14 14 13 13 14 16 16 16 15 16 17 17 18 19 19 18 17 18 20 20 18 17 18 21 23 23 21 20 20 19 20 22 22 23 24 24 23 23 23 23 23 23 23 22 22 23 24 25 26 27 28 30 31 31 32 33 34 34 35 35 35 36 37 37 37 38 38 38 38 38 38 38 38 38 38 37 37 37 37 37 36 36 36
16 16 14 14 15 14 13 14 16 17 16 16 17 17 16 16 18 20 20 20 21 22 22 20 20 21 24 25 25 24 25 24 21 22 24 25 25 26 26 25 25 24 24 24 24 24 24 24 24 25 26 26 27 29 30 31 31 32 33 34 35 35 35 36 36 37 38 38 38 38 39 39 39 39 39 39 39 39 38 38 38 38 38 38 38 37
15 17 15 14 15 14 15 16 16 16 17 18 18 17 18 17 18 21 21 21 23 24 23 22 21 22 23 25 26 25 26 25 24 24 25 25 26 27 27 27 27 26 25 25 25 25 25 26 26 26 27 28 29 30 30 31 32 32 33 34 35 36 36 36 37 37 38 39 39 39 39 39 40 40 40 40 40 40 40 39 39 39 39 39 39 38
16 19 18 17 17 15 17 18 17 17 19 20 20 19 21 20 20 22 23 23 24 25 25 24 25 27 28 31 31 28 28 27 25 25 24 25 27 27 29 29 28 27 27 26 26 26 27 27 27 28 28 29 30 31 31 32 33 33 34 34 35 36 36 37 37 38 38 39 39 40 40 40 41 41 41 41 41 41 41 40 40 40 40 40 39 39
18 21 20 19 20 19 19 20 20 20 20 20 21 22 24 23 21 23 25 26 24 27 28 26 29 33 32 34 33 30 31 29 25 24 24 26 27 27 29 29 28 28 28 28 28 28 28 28 29 30 30 31 32 32 33 34 34 35 35 35 35 36 36 37 38 38 39 39 39 40 41 41 41 42 42 42 42 42 41 41 41 41 40 40 40 40
20 24 24 21 22 23 22 22 24 24 21 21 23 25 25 24 23 23 24 26 24 27 30 28 32 34 30 31 33 30 31 30 27 26 26 27 27 27 28 29 28 28 28 29 29 29 29 30 30 31 31 32 33 34 35 35 35 36 36 36 36 37 37 37 38 39 39 39 40 41 41 42 42 42 43 43 43 43 42 42 42 41 41 41 40 40
21 25 27 23 23 24 24 23 26 26 24 24 26 27 25 24 25 23 23 25 25 28 31 30 32 33 30 32 36 34 33 32 29 28 27 28 27 27 29 30 30 29 29 30 30 30 31 31 32 32 32 33 33 34 35 36 36 37 37 37 37 38 38 38 38 39 39 40 41 41 42 42 42 43 43 43 43 43 43 43 42 42 42 41 41 41
22 24 27 26 25 26 25 25 26 27 26 26 28 29 28 27 27 25 25 26 25 28 32 32 31 32 33 35 37 36 35 33 30 29 28 28 28 28 30 30 30 30 31 31 31 33 33 33 33 33 33 34 34 34 35 36 37 38 38 38 38 38 38 38 39 39 40 40 41 41 42 42 43 43 43 44 44 44 43 43 43 42 42 42 42 42
23 24 27 29 29 28 28 28 28 28 27 27 29 30 30 29 28 28 29 29 27 28 30 32 34 35 35 35 36 36 34 32 31 30 29 29 29 29 29 29 30 31 32 33 34 35 35 35 35 34 34 35 34 35 35 36 37 38 39 39 39 39 39 39 40 40 40 41 41 42 42 43 43 43 44 44 44 44 44 43 43 43 42 42 42 42
25 25 28 31 31 31 33 32 31 31 30 29 31 32 32 30 28 28 31 31 30 30 30 31 36 38 37 36 35 34 32 31 31 31 31 31 31 31 31 31 32 33 34 35 35 36 36 36 36 36 35 35 35 35 35 36 37 38 39 40 40 40 40 40 41 41 41 41 42 42 43 43 43 44 44 44 44 44 44 43 43 43 43 43 43 43
26 27 30 33 34 35 36 34 33 33 32 32 33 33 32 31 30 30 32 32 31 33 33 33 36 38 37 35 33 31 30 30 31 31 31 32 32 32 32 32 33 34 35 36 36 36 36 36 36 36 35 35 35 36 36 36 36 37 39 40 40 41 41 41 42 42 42 42 42 43 43 43 43 43 44 44 44 44 44 44 43 43 43 43 43 43
27 28 31 34 36 37 37 34 33 32 31 32 34 33 32 33 34 33 34 33 32 35 35 32 34 36 33 33 31 30 30 30 31 32 32 33 34 34 35 35 36 36 36 36 37 36 36 36 36 36 36 36 36 36 36 36 37 37 38 39 40 41 41 42 42 43 43 43 43 43 43 43 43 44 44 44 44 44 44 43 43 43 43 43 44 44
29 29 31 33 35 36 36 34 33 32 31 32 33 32 33 35 36 35 36 35 35 39 37 32 35 36 32 32 32 31 32 33 35 36 36 37 37 38 38 38 37 37 37 37 37 37 36 36 37 37 38 38 38 38 37 37 37 38 39 40 40 41 41 42 42 43 44 44 44 44 44 44 44 44 44 44 44 44 44 44 43 43 43 44 44 44
31 31 31 32 32 33 34 34 33 33 33 34 34 34 34 35 36 36 37 36 37 40 39 36 39 41 36 35 36 36 37 38 39 40 40 40 40 39 39 38 38 38 38 39 38 37 37 37 36 37 38 38 39 39 39 39 39 39 40 41 41 42 42 42 43 43 44 44 44 44 44 44 44 44 44 44 44 44 44 44 44 44 44 44 44 44
32 34 34 34 34 35 38 38 36 34 37 39 39 40 39 37 37 36 37 38 39 40 40 41 44 42 38 38 40 40 40 40 41 42 41 42 41 39 39 39 39 39 38 39 38 38 37 37 37 37 38 38 39 39 40 40 40 41 41 42 42 42 42 42 43 43 44 44 45 45 45 44 44 44 45 45 45 44 44 44 44 44 44 45 45 45
32 36 36 35 37 39 41 42 39 37 39 41 42 42 41 39 37 36 38 40 41 39 40 43 43 38 36 38 40 41 41 40 41 41 42 42 40 38 38 38 38 38 38 38 38 38 38 38 39 39 39 39 40 40 41 41 42 42 43 43 43 43 43 43 43 43 43 44 45 45 45 44 44 45 45 45 45 45 45 45 45 45 45 45 45 45
32 37 36 35 38 41 41 40 39 38 39 38 38 38 38 38 38 38 40 41 40 39 40 42 40 35 35 38 40 40 40 40 40 40 41 41 39 37 38 38 38 39 39 39 40 40 40 40 40 41 41 41 41 41 42 42 43 43 43 44 44 44 44 44 43 44 44 44 45 45 45 45 44 44 45 46 46 46 45 45 45 45 45 46 46 46
32 36 36 34 38 41 40 37 36 36 36 35 35 36 37 37 37 36 37 38 37 36 36 37 35 33 34 37 38 39 39 38 39 39 40 39 38 37 38 38 39 39 39 40 40 40 40 40 41 41 41 42 42 42 42 42 43 43 43 44 44 45 45 44 44 44 44 45 45 45 45 45 45 44 45 46 47 47 46 46 46 45 45 46 46 45
32 34 34 34 37 40 39 35 34 35 34 34 35 37 37 36 34 34 34 35 34 34 34 35 34 33 35 36 37 38 38 37 38 39 40 38 37 37 37 37 38 39 39 40 40 39 39 40 40 40 41 41 42 42 42 42 43 44 44 44 45 45 45 45 45 45 45 45 45 45 45 45 45 45 45 46 47 47 47 46 46 46 46 46 45 45
32 34 35 33 35 39 37 34 35 37 36 33 33 36 36 34 33 33 33 33 33 33 34 34 33 35 37 38 38 37 37 37 37 38 39 38 36 35 36 36 38 39 39 40 40 40 40 41 41 41 41 42 42 43 43 44 44 45 45 45 46 46 46 46 46 47 46 46 45 44 45 45 45 45 45 46 46 47 47 47 46 46 45 45 44 44
31 32 34 32 33 37 37 35 37 39 36 31 29 32 34 33 32 34 33 33 33 32 32 33 33 36 38 39 39 38 37 37 37 38 39 37 35 35 35 37 39 40 40 40 40 40 41 41 41 41 42 43 43 44 45 46 46 46 46 46 46 46 47 47 47 48 47 46 45 44 44 44 44 45 45 45 45 45 46 46 45 45 44 44 43 43
29 30 31 31 31 35 37 36 36 35 31 28 26 29 33 33 33 35 34 32 32 31 31 32 33 36 38 38 39 39 38 38 38 39 40 37 34 36 38 39 41 41 40 40 40 41 42 42 42 43 44 45 46 47 47 47 47 46 46 47 46 46 47 47 47 47 46 45 45 44 44 44 44 44 44 44 44 44 44 44 44 43 43 43 42 43
30 30 30 30 30 33 34 33 32 30 27 26 25 28 31 31 32 34 33 30 30 31 32 33 34 36 38 38 39 39 39 40 40 41 40 37 35 38 41 42 42 41 41 42 43 43 43 44 45 46 46 47 47 47 47 47 47 47 47 47 47 47 47 47 47 46 45 44 44 43 43 43 44 43 43 43 43 43 42 42 42 42 42 42 42 43
30 30 30 29 29 30 30 28 28 27 25 24 26 28 31 31 32 34 33 29 30 32 33 33 35 37 38 39 39 39 41 42 41 40 38 36 37 40 43 44 44 43 44 45 45 46 47 47 47 47 48 48 48 48 48 48 48 48 48 47 47 47 47 47 47 46 45 43 43 43 42 42 43 42 42 42 41 41 41 41 41 41 42 42 42 43
29 28 28 28 26 26 27 28 27 26 25 25 27 29 31 33 34 35 33 31 30 31 32 34 37 39 41 41 41 42 43 44 41 37 36 37 40 42 43 44 44 45 46 47 47 48 48 49 49 49 50 50 50 50 51 50 50 50 49 48 47 47 46 46 46 45 44 43 43 42 42 41 42 41 41 41 40 40 40 41 41 41 42 42 42 42
28 27 27 26 25 25 27 27 27 26 25 25 27 29 31 34 35 34 34 33 31 31 34 38 40 43 44 44 44 44 44 43 41 39 39 41 43 44 45 46 47 48 49 50 50 50 51 51 51 51 52 52 53 52 51 51 50 49 48 47 46 46 45 45 45 45 44 44 43 43 42 41 41 40 40 40 40 40 40 40 40 41 41 41 42 42
28 27 25 24 25 25 26 26 25 25 25 26 30 32 33 36 38 36 33 32 31 34 39 41 42 44 45 45 46 46 44 42 43 44 46 47 48 48 48 49 49 50 51 52 52 53 53 53 53 53 54 54 53 52 51 51 50 49 48 47 46 46 46 45 45 45 44 44 43 42 41 40 40 40 39 39 39 39 39 40 40 40 41 41 42 42
28 27 26 24 24 25 26 25 25 25 26 28 32 33 36 40 40 35 32 33 35 40 42 42 44 45 45 46 46 44 43 43 45 48 51 52 50 48 48 49 50 52 52 52 52 52 53 53 54 55 55 54 53 53 52 52 51 49 48 47 46 45 45 45 44 43 42 42 41 40 40 40 40 40 39 39 39 39 39 40 40 40 41 41 41 41
28 27 25 24 24 25 26 25 26 26 27 29 31 34 39 42 37 31 31 35 39 42 42 42 43 44 43 45 45 43 44 46 48 51 52 50 49 47 48 49 50 51 51 51 51 50 50 52 53 53 52 52 52 52 51 50 50 48 47 46 45 45 44 43 42 41 41 40 39 39 39 39 39 39 39 39 39 39 39 40 40 41 41 41 41 41
28 27 25 25 25 25 25 26 28 27 26 29 34 37 38 38 34 32 34 37 38 40 41 41 41 41 42 43 43 43 45 46 47 49 48 46 46 46 47 48 49 49 49 49 48 48 49 50 50 50 50 50 50 49 49 48 47 46 45 44 44 43 42 41 41 40 40 39 38 38 38 38 38 38 38 38 39 39 39 40 40 40 41 41 41 40
27 26 26 26 26 26 26 26 27 27 29 34 38 37 36 36 36 36 37 37 38 40 41 41 40 41 42 43 44 45 45 46 46 46 45 44 44 45 46 46 45 46 47 46 45 45 46 47 46 47 47 47 46 46 45 45 44 44 43 43 42 41 41 41 40 40 39 38 38 38 38 38 37 37 38 38 39 39 39 39 40 40 40 40 40 39
25 24 25 26 26 25 26 27 28 30 34 37 37 37 39 40 38 36 37 38 39 40 40 40 41 41 42 43 45 45 45 45 46 46 46 45 45 44 43 43 43 44 45 43 42 43 43 43 43 44 43 43 42 42 41 40 40 39 39 40 40 39 40 39 39 38 38 37 37 37 37 37 37 37 37 38 38 39 39 39 39 39 39 38 38 38
25 25 25 26 26 27 28 30 32 34 36 37 38 41 43 42 38 36 37 39 39 39 39 40 41 42 42 43 44 44 44 45 45 46 46 46 44 43 42 42 43 44 43 42 42 41 41 40 41 40 40 39 38 37 36 35 35 35 35 34 35 35 36 36 35 35 35 35 36 36 36 36 36 37 37 38 38 39 39 39 38 38 38 37 37 37
26 26 26 28 29 30 31 32 34 35 37 38 40 43 43 40 37 37 39 39 39 40 40 41 42 42 42 43 43 44 44 44 44 45 45 44 43 42 41 42 42 42 42 41 40 40 39 39 38 38 37 36 35 34 33 31 30 30 30 29 29 30 30 31 31 31 32 32 33 34 34 35 36 36 37 37 38 38 38 38 37 37 36 36 36 36
27 27 28 29 31 33 33 33 35 37 39 41 42 43 42 39 37 38 39 39 40 41 41 42 42 42 42 43 43 43 43 43 44 44 43 43 43 41 40 40 41 41 42 41 39 38 39 38 36 36 35 34 33 31 30 29 28 27 26 26 26 26 26 27 27 27 28 29 30 31 32 33 34 34 35 35 36 36 36 36 36 35 35 35 35 35
28 29 30 31 32 34 35 36 38 40 40 39 41 43 42 39 38 38 39 40 41 42 42 42 42 42 42 42 42 43 43 43 42 43 42 42 41 40 39 39 39 40 41 39 37 37 37 36 35 34 33 32 31 30 29 28 26 25 24 24 24 24 24 24 25 25 26 27 28 29 29 30 31 32 32 33 33 33 33 33 33 34 34 34 34 34
29 30 32 33 35 35 35 37 41 42 39 37 40 43 43 40 39 40 41 42 43 43 42 42 42 42 42 42 42 43 43 42 42 42 42 41 40 39 37 38 39 40 39 36 35 36 35 34 32 32 31 30 29 28 27 26 25 24 23 23 22 22 22 23 23 24 24 25 26 26 27 28 29 29 30 30 30 31 31 31 32 32 32 33 33 33
31 32 33 35 36 36 37 39 42 43 42 42 45 46 44 42 42 43 43 43 43 43 43 44 43 42 41 41 42 42 43 42 42 41 41 40 39 38 37 38 39 39 36 34 34 34 33 31 30 29 29 28 27 27 26 25 24 23 23 22 22 21 21 22 22 22 23 24 24 25 25 26 26 27 27 28 28 28 29 29 30 31 31 31 31 32
31 32 34 35 36 37 39 41 43 43 45 46 47 47 45 44 44 44 44 43 43 44 44 44 44 43 42 41 42 43 43 43 42 41 40 39 38 36 36 37 38 36 34 33 33 32 30 29 28 27 27 27 26 25 24 24 23 22 22 21 21 21 21 21 21 21 22 22 23 23 24 24 25 25 25 26 26 26 27 27 28 29 29 29 30 30
Wind_Direction
316 311 306 302 300 298 295 292 290 292 293 293 293 292 292 292 294 294 293 294 295 292 290 287 286 289 288 287 284 280 275 272 271 270 269 267 265 264 261 260 258 257 258 258 256 254 251 250 249 248 248 247 248 248 248 247 247 247 247 247 248 248 248 247 247 248 248 249 250 250 251 251 252 252 253 253 254 254 254 255 255 256 256 258 259 260
318 309 305 301 297 297 297 297 300 300 299 299 295 294 296 294 294 296 294 298 301 297 295 295 294 292 290 290 288 283 277 274 271 269 268 266 264 264 261 259 258 259 260 259 257 255 252 251 250 250 249 248 248 249 249 249 248 248 247 247 248 248 247 247 248 248 249 250 250 251 251 252 252 252 253 254 255 255 255 255 255 256 257 259 261 262
318 308 304 301 300 305 308 310 310 304 299 298 297 297 297 296 299 301 299 303 305 298 298 301 299 296 294 292 290 284 278 275 272 268 267 266 265 264 262 261 260 260 259 258 257 255 253 252 251 250 250 249 249 249 249 249 248 247 247 247 247 247 247 247 248 248 249 250 251 252 252 252 253 254 254 255 256 255 255 256 256 257 258 259 261 263
314 308 304 305 310 311 310 312 311 307 303 297 295 296 296 299 303 301 302 305 302 298 299 302 300 298 299 297 292 287 282 279 277 273 272 270 268 266 264 263 261 259 258 257 257 257 255 253 252 251 251 250 250 250 249 248 248 247 247 247 247 247 247 247 248 248 249 250 251 252 253 253 254 255 256 256 257 256 256 256 257 257 258 259 262 263
306 307 309 315 320 313 306 308 308 304 303 299 293 291 294 298 296 294 301 305 303 303 302 302 302 300 304 304 298 295 289 285 284 282 278 274 270 268 267 266 264 261 260 258 257 257 256 254 253 252 252 251 251 250 249 248 247 247 247 247 247 247 248 248 248 248 249 250 251 251 252 253 254 255 256 256 257 256 256 257 257 257 258 259 262 263
307 309 313 315 317 315 306 303 301 296 301 303 296 290 292 297 296 299 306 308 308 308 304 308 308 302 309 310 298 298 297 293 292 288 283 278 272 270 269 268 265 264 263 261 260 259 257 256 254 253 252 251 251 250 250 249 248 248 248 247 248 248 249 249 249 248 249 249 250 250 251 251 252 254 254 255 255 255 255 256 257 257 258 260 262 264
313 317 320 315 312 314 308 302 300 298 304 305 300 298 299 302 303 304 308 308 306 304 303 308 304 298 309 313 302 305 306 299 298 294 288 283 277 273 271 270 267 265 265 264 263 261 258 256 255 254 252 251 251 251 250 249 249 248 249 249 249 249 250 249 249 248 248 249 250 250 250 251 252 252 254 254 254 255 255 256 258 259 259 261 263 265
316 320 322 319 314 310 305 303 301 301 306 302 301 306 306 305 304 303 306 304 300 302 305 303 296 294 303 309 309 313 311 303 301 299 295 290 282 277 275 274 271 269 267 266 264 262 259 257 256 255 253 251 250 251 250 250 250 250 250 250 250 251 251 250 249 248 248 249 250 250 251 252 252 253 254 255 255 255 256 257 258 260 261 262 263 265
315 311 307 308 310 305 301 302 298 296 302 299 299 304 305 303 302 302 303 301 302 307 307 300 295 295 297 304 313 314 307 302 301 299 297 293 288 282 279 277 275 273 271 269 266 263 261 259 257 256 255 253 251 250 250 250 251 251 251 251 251 251 251 251 250 249 249 250 250 251 251 252 253 254 255 256 256 256 257 258 259 261 262 263 265 266
313 307 300 302 304 299 299 302 300 297 299 300 303 307 309 308 306 305 303 301 304 305 300 294 290 293 298 304 311 311 304 299 298 299 297 293 291 287 283 280 278 276 274 272 269 266 264 261 259 258 257 255 252 251 251 252 252 252 252 252 252 252 252 251 251 250 250 250 251 251 252 252 253 254 255 256 256 257 258 258 259 261 263 265 266 266
311 309 304 302 300 298 301 305 306 304 302 304 308 308 309 310 307 306 303 303 305 299 295 292 285 289 300 305 307 305 301 298 298 300 298 295 293 289 286 283 279 278 276 274 271 269 267 265 264 262 259 257 255 254 254 254 254 254 254 253 253 253 253 252 251 251 250 250 251 251 252 252 252 253 254 255 256 256 257 259 260 262 264 265 266 267
311 308 303 302 300 303 307 306 306 307 305 304 307 307 308 308 308 306 305 305 301 296 298 297 290 287 291 300 306 303 300 300 299 298 296 294 293 290 288 286 281 280 278 276 273 271 270 269 266 263 261 259 257 256 255 255 255 255 255 254 254 254 253 253 252 251 251 251 252 252 252 252 253 253 254 254 255 256 258 259 261 263 264 265 266 268
307 301 303 305 302 300 302 303 304 306 307 305 303 305 306 308 308 304 302 302 296 294 298 297 293 287 285 293 301 300 298 298 296 294 293 292 290 290 290 288 285 282 279 277 275 273 272 271 269 265 262 261 259 257 256 256 256 256 256 255 254 254 254 253 253 252 252 252 252 252 253 253 253 254 254 255 256 257 259 260 261 262 263 264 266 268
309 307 307 306 303 298 295 299 299 300 303 300 298 299 300 305 305 300 300 301 298 296 296 294 293 290 290 295 295 293 295 298 296 291 289 288 288 288 289 289 287 283 280 277 275 275 274 272 271 268 265 263 261 260 259 257 257 256 256 255 255 255 254 254 254 253 253 253 253 253 253 254 254 254 255 256 257 258 260 261 261 262 264 265 267 269
305 306 303 300 302 299 293 295 297 299 299 296 295 295 294 295 295 295 297 297 297 299 295 293 292 289 291 297 296 294 297 299 297 293 290 288 286 287 290 290 286 283 281 279 277 275 275 274 272 270 268 266 264 262 261 259 258 257 257 257 256 256 255 254 254 254 253 253 254 254 254 255 255 256 256 257 258 259 260 261 262 263 264 265 267 269
300 298 299 302 302 297 294 297 298 300 299 295 295 295 292 290 289 292 293 292 296 299 293 289 288 287 290 295 297 298 299 297 295 292 289 287 287 289 291 288 284 282 281 280 278 277 276 276 274 272 271 268 266 264 262 261 259 258 258 257 257 257 257 256 255 255 255 254 254 254 255 255 256 257 257 258 259 260 260 261 262 263 264 266 268 269
300 297 300 303 300 295 294 296 296 296 297 295 294 291 291 291 290 292 294 296 298 294 291 289 288 290 294 295 296 298 298 298 297 293 288 287 290 291 289 286 284 283 281 280 279 278 277 277 276 275 274 272 269 266 264 262 261 259 259 258 258 258 258 257 256 256 256 256 255 255 255 256 256 257 258 258 259 259 260 261 262 263 264 265 267 269
298 297 298 298 297 295 295 296 296 294 291 291 291 291 292 293 293 292 293 297 297 291 291 291 287 290 294 295 300 302 301 301 300 297 295 293 292 289 285 285 285 283 282 282 281 280 279 279 278 278 277 275 272 269 266 265 263 262 260 260 259 259 258 258 258 257 257 256 256 256 256 256 257 257 258 259 259 259 260 260 261 262 263 265 267 268
299 298 299 299 297 297 298 298 296 294 290 289 290 291 291 290 291 291 289 291 291 289 293 292 289 290 288 292 299 301 299 300 299 298 298 293 289 286 284 285 285 283 282 282 283 281 280 281 281 280 279 277 275 272 269 267 265 263 262 261 260 260 260 260 259 259 258 258 258 258 257 257 258 258 259 259 259 259 259 260 260 261 263 264 266 268
299 297 298 301 299 298 298 296 294 294 294 293 292 290 289 287 287 286 285 287 287 288 291 292 292 291 289 293 299 298 297 298 297 297 295 290 288 288 287 287 286 285 284 285 285 283 282 283 283 282 281 279 277 274 271 269 266 264 263 262 261 261 261 261 260 260 259 259 259 259 258 259 259 259 259 258 258 259 259 259 260 261 262 264 267 268
297 294 293 298 299 296 295 294 293 293 293 292 290 288 287 286 286 286 284 284 285 286 288 290 289 289 293 298 299 298 299 299 297 294 291 290 291 291 290 288 287 287 287 287 287 285 284 284 285 284 283 281 278 275 273 270 268 265 264 263 262 262 262 261 261 261 260 260 260 259 259 259 259 259 259 258 258 258 258 259 259 261 263 265 267 269
295 291 291 295 295 293 294 295 293 291 291 290 288 287 287 285 285 286 285 284 283 282 283 286 287 289 294 298 298 298 299 298 297 293 291 293 294 294 293 292 291 289 288 288 288 287 286 286 286 284 283 281 279 276 274 271 269 267 265 264 264 263 263 263 262 262 261 261 260 260 260 259 259 259 258 258 257 257 257 258 259 261 263 265 267 269
295 293 291 291 292 292 295 298 296 294 293 292 290 289 289 287 283 282 284 286 284 282 283 284 286 290 294 295 297 298 296 295 297 296 294 295 296 297 297 296 295 293 291 290 289 288 287 287 286 284 282 280 279 277 275 273 271 269 267 266 265 264 264 264 264 263 262 262 261 261 260 260 259 259 258 257 256 256 257 258 259 261 263 265 267 269
296 294 292 292 295 295 297 299 299 299 297 293 291 291 289 287 286 283 283 285 286 284 285 285 285 289 294 293 293 295 295 296 298 298 297 295 296 296 296 296 296 295 295 294 292 290 289 287 286 284 282 280 279 277 276 274 273 271 269 268 266 266 266 266 265 264 263 262 262 261 261 260 259 258 257 256 256 256 257 258 260 262 264 266 267 268
296 296 295 296 299 299 299 301 301 301 299 294 294 294 292 290 290 288 285 285 284 282 283 283 282 284 289 293 295 296 295 294 295 296 296 295 294 295 295 296 297 297 297 296 295 293 291 289 287 285 283 281 280 278 276 275 275 273 271 269 268 267 267 267 267 265 264 263 262 261 261 260 259 258 257 256 256 256 257 258 260 262 264 266 267 268
296 295 294 294 296 297 298 299 300 300 297 295 295 296 294 291 289 289 287 283 282 283 282 281 282 283 287 292 294 294 293 292 293 294 295 295 294 295 295 296 296 296 296 295 294 293 291 290 289 287 286 284 282 280 278 276 275 273 272 270 269 269 269 268 268 266 265 263 262 261 261 260 259 258 256 256 256 256 257 259 261 263 264 266 267 268
297 295 293 290 289 291 292 294 298 300 297 295 295 295 294 291 288 288 286 282 283 286 283 280 282 286 290 292 292 292 292 292 292 292 293 293 293 293 294 294 294 294 294 294 293 293 292 291 291 291 290 288 285 282 280 277 276 274 273 271 270 269 269 269 269 267 266 264 262 261 260 260 259 258 256 256 256 256 258 260 261 263 265 266 266 267
297 295 295 292 289 290 293 295 299 300 297 295 296 295 294 294 291 288 285 283 286 286 283 283 287 289 291 292 292 292 291 291 291 292 292 291 290 291 291 292 293 294 294 294 294 293 292 292 292 292 292 290 288 284 282 280 278 277 274 272 271 269 269 269 269 268 266 265 263 262 261 260 259 258 257 256 256 257 259 260 262 264 265 265 266 267
297 296 298 297 293 293 295 297 299 299 297 297 298 298 298 297 295 291 288 288 288 285 285 289 290 289 291 292 292 292 292 291 291 292 292 290 289 290 291 292 293 294 294 294 293 292 292 291 292 292 292 292 290 287 284 282 280 278 276 273 271 270 270 269 268 267 266 265 264 263 261 260 259 258 258 257 257 257 259 260 262 264 265 265 266 267
299 298 301 300 297 297 299 300 300 299 299 300 301 302 302 300 298 297 295 294 292 288 290 294 291 288 291 293 291 292 292 292 292 292 292 291 290 291 293 294 294 294 293 293 292 291 291 291 292 292 292 292 291 289 287 284 281 279 276 274 273 272 271 270 268 267 266 266 265 265 262 260 259 258 258 258 258 258 259 260 262 264 264 265 266 267
301 301 303 303 299 299 302 303 302 301 300 302 304 304 303 302 302 302 300 299 296 293 294 296 291 289 292 293 292 292 292 293 293 294 294 293 293 293 294 295 295 295 294 293 292 291 291 292 291 291 292 292 291 289 287 285 282 279 278 277 275 274 273 270 269 268 267 267 266 265 263 261 259 258 258 259 259 258 259 260 261 263 264 264 266 267
304 302 305 306 301 300 304 305 304 302 301 302 307 309 306 304 305 304 301 300 298 295 297 298 295 294 294 294 293 292 294 295 295 296 296 294 294 295 295 296 297 296 295 294 292 292 292 291 290 290 290 291 291 289 287 286 284 282 280 279 277 275 273 271 269 269 268 268 267 265 264 262 260 259 258 258 259 259 259 260 261 263 264 264 265 266
307 306 306 306 302 302 306 307 306 305 303 302 307 312 309 306 307 306 303 301 299 297 298 299 298 298 298 297 295 295 295 296 296 297 297 295 295 296 298 300 299 297 295 294 293 293 292 290 289 289 290 290 290 290 289 288 286 283 281 280 278 276 273 271 271 270 270 268 266 265 264 262 260 259 259 258 258 259 259 260 261 262 263 263 264 265
313 311 308 307 304 304 308 310 309 307 304 302 305 312 311 307 309 310 304 299 298 297 298 298 298 300 301 300 299 298 297 297 297 297 296 294 296 299 301 301 298 296 295 295 294 294 293 291 291 291 291 292 291 291 290 288 286 284 282 281 279 276 274 272 272 271 269 268 266 264 263 262 261 260 259 259 258 258 259 259 260 261 262 262 264 264
315 314 312 310 307 307 311 313 311 308 306 302 302 310 311 304 305 309 304 297 299 300 299 299 300 302 304 302 301 300 298 298 298 296 294 293 297 302 301 299 296 296 297 296 295 294 294 293 293 293 292 292 292 291 290 288 287 285 283 281 279 277 275 273 272 271 269 267 266 264 263 262 261 260 259 259 258 258 258 259 259 260 261 263 264 264
316 316 315 314 311 312 313 314 313 310 309 306 303 308 312 307 306 309 305 299 302 303 300 300 301 303 304 303 302 301 300 298 296 295 293 294 299 302 300 296 295 296 296 296 295 294 294 294 293 292 292 291 291 290 289 288 287 286 284 282 279 278 276 273 271 270 268 267 266 264 263 262 261 260 259 258 258 258 258 259 260 261 262 263 264 264
320 319 319 317 316 317 316 314 313 310 309 312 311 312 315 313 310 309 304 299 302 303 301 303 304 304 305 304 303 302 301 298 294 292 293 296 299 299 297 295 295 295 295 294 293 293 293 292 292 292 291 291 290 290 289 288 287 286 284 282 280 278 276 273 271 269 267 266 265 264 262 261 260 259 258 257 257 258 259 259 260 261 262 263 263 263
326 323 322 319 318 321 320 318 318 314 312 316 316 314 314 313 311 308 301 298 302 305 305 306 305 305 305 304 303 303 302 298 294 292 294 296 298 297 297 296 295 295 295 294 293 293 293 293 293 292 292 291 291 291 290 289 288 286 283 281 279 277 275 273 271 268 266 265 264 263 262 261 259 258 257 257 257 258 259 260 261 262 262 263 263 264
329 326 325 322 321 324 323 320 320 318 316 318 317 315 317 317 314 310 303 299 304 308 308 307 305 305 305 304 304 304 301 297 295 295 296 297 297 296 296 296 295 295 295 294 294 293 293 293 293 292 292 292 291 291 290 289 287 285 282 280 278 276 274 272 270 268 266 264 263 261 260 260 259 258 258 258 258 258 259 260 261 262 263 264 264 265
330 327 328 327 324 325 324 321 319 318 318 318 317 318 321 320 317 312 305 303 308 310 308 307 306 306 306 305 305 303 300 298 298 298 299 298 296 296 296 296 296 295 294 294 293 293 293 292 293 292 292 292 291 290 290 288 286 284 282 280 278 275 273 271 269 267 266 264 262 260 259 259 259 258 258 258 259 260 260 261 262 263 264 265 265 265
329 328 328 329 326 326 325 322 320 319 319 320 321 322 324 323 319 314 310 310 313 312 311 311 310 309 309 308 306 304 302 301 300 300 300 299 298 298 299 299 298 297 296 295 294 294 294 293 293 293 292 292 291 290 289 287 285 283 281 279 277 274 273 271 269 267 265 263 261 260 259 259 259 259 259 259 260 261 262 263 264 264 265 265 265 265
329 328 328 329 327 327 325 323 321 321 323 326 326 326 328 327 321 317 316 315 314 314 315 315 313 313 313 311 308 306 305 304 303 303 303 302 302 302 302 302 301 300 299 298 297 297 297 296 295 295 294 293 293 291 290 288 285 283 281 279 276 274 273 270 268 265 263 261 260 260 260 260 259 259 259 260 261 262 263 264 264 265 265 265 265 265
329 328 328 329 328 327 326 326 325 323 326 330 328 327 329 327 321 318 318 316 315 316 316 316 315 314 314 312 309 308 307 307 307 306 306 305 305 306 306 305 305 304 303 302 301 301 300 299 298 298 297 296 295 293 291 289 286 283 281 279 276 274 272 269 266 264 261 260 260 260 260 260 259 260 260 261 262 262 263 264 265 265 265 265 264 263
328 329 328 328 329 329 327 326 325 323 324 328 328 326 325 323 320 319 319 318 318 318 316 315 314 314 313 312 310 309 309 309 309 308 307 307 306 307 307 307 308 307 306 304 304 304 303 302 301 301 300 299 298 297 294 292 288 286 283 280 277 274 271 268 265 262 261 261 260 260 260 259 260 260 261 262 263 263 264 264 265 265 265 264 263 263
329 329 327 326 327 327 323 321 322 321 322 325 326 324 322 320 320 321 320 319 319 318 317 315 314 313 313 312 311 310 310 310 310 309 308 307 306 306 307 309 310 309 307 305 305 305 305 304 304 303 303 302 302 300 298 295 292 290 287 283 279 274 270 267 264 262 261 261 260 259 259 259 260 261 262 263 263 263 263 264 264 264 264 263 262 262
329 330 329 327 326 325 322 320 320 321 323 324 324 323 322 321 321 322 322 320 318 317 316 316 314 313 313 313 312 311 310 310 310 309 308 307 306 307 307 308 309 309 308 306 305 306 306 306 305 305 305 305 305 304 302 300 296 293 290 286 281 277 272 268 265 263 261 260 260 259 260 260 261 262 263 263 264 264 264 264 263 263 263 262 262 262
329 329 328 326 326 326 325 323 323 323 324 323 323 323 322 320 320 322 322 320 318 317 316 315 315 314 314 313 312 311 311 311 311 310 309 309 308 306 307 308 309 309 308 306 306 307 307 306 306 306 306 306 306 306 305 303 300 296 292 289 285 280 275 271 267 264 262 262 261 261 261 262 263 263 264 264 264 264 264 263 262 262 261 261 260 261
328 327 326 325 324 323 322 322 323 323 322 321 323 324 322 320 320 321 320 319 319 318 316 315 316 315 314 313 313 312 312 312 312 311 311 311 309 307 307 308 309 310 309 307 306 308 308 307 306 306 306 306 307 307 306 305 302 298 294 291 287 282 278 274 270 267 266 265 264 264 264 264 264 264 264 264 264 263 263 262 262 261 261 261 261 261
327 327 325 324 323 322 322 323 325 324 322 322 323 324 323 320 320 320 319 318 319 319 317 317 316 315 314 314 314 314 313 313 313 312 312 312 311 309 308 308 310 310 309 307 308 309 308 307 306 306 306 306 307 307 307 305 303 300 296 292 289 284 280 276 273 270 269 267 267 266 266 265 265 265 265 264 264 263 263 262 262 262 262 263 262 262
327 326 325 325 324 324 324 325 325 324 323 323 324 324 323 321 319 318 318 319 320 320 319 318 317 315 315 315 315 315 314 314 314 313 312 312 311 310 309 310 311 311 310 309 309 309 308 307 307 307 306 306 307 308 307 306 304 301 298 295 291 287 283 279 276 273 271 270 269 268 267 267 267 266 265 265 264 263 263 263 263 263 263 263 262 261
327 326 326 326 324 323 323 323 323 322 320 321 322 322 321 320 318 318 319 320 320 320 320 318 317 316 316 315 316 316 315 314 313 313 312 311 310 309 309 311 312 311 310 310 310 310 309 309 308 308 308 308 308 308 308 307 305 303 300 297 293 289 285 281 278 276 274 272 271 270 269 268 267 266 265 265 264 264 264 264 264 263 262 262 262 262